Time,TemperatureF,DewpointF,PressureIn,WindDirection,WindDirectionDegrees,WindSpeedMPH,WindSpeedGustMPH,Humidity,HourlyPrecipIn,Conditions,Clouds,dailyrainin,SolarRadiationWatts/m^2,SoftwareType,DateUTC
2013-04-26 00:00:00,59.1,42.0,30.34,ESE,108,0.0,-999.0,53,-99.99,,,0.00,0,weatherlink.com 1.10,2013-04-26 05:00:00,
2013-04-26 00:15:00,58.6,41.0,30.34,ESE,108,0.0,-999.0,53,-99.99,,,0.00,0,weatherlink.com 1.10,2013-04-26 05:15:00,
2013-04-26 00:30:00,58.3,41.0,30.33,ESE,108,0.0,-999.0,54,-99.99,,,0.00,0,weatherlink.com 1.10,2013-04-26 05:30:00,
2013-04-26 00:45:00,57.8,42.0,30.32,ESE,108,0.0,-999.0,56,-99.99,,,0.00,0,weatherlink.com 1.10,2013-04-26 05:45:00,
2013-04-26 01:00:00,57.3,42.0,30.32,ESE,108,0.0,-999.0,56,-99.99,,,0.00,0,weatherlink.com 1.10,2013-04-26 06:00:00,
2013-04-26 01:15:00,57.2,42.0,30.33,ESE,108,4.0,-999.0,58,-99.99,,,0.00,0,weatherlink.com 1.10,2013-04-26 06:15:00,
2013-04-26 01:30:00,57.2,42.0,30.33,ESE,108,0.0,-999.0,58,-99.99,,,0.00,0,weatherlink.com 1.10,2013-04-26 06:30:00,
2013-04-26 01:45:00,57.1,42.0,30.33,ESE,108,0.0,-999.0,58,-99.99,,,0.00,0,weatherlink.com 1.10,2013-04-26 06:45:00,
2013-04-26 02:00:00,57.5,42.0,30.34,ESE,108,0.0,-999.0,56,-99.99,,,0.00,0,weatherlink.com 1.10,2013-04-26 07:00:00,
2013-04-26 02:15:00,57.7,42.0,30.34,ESE,108,0.0,-999.0,56,-99.99,,,0.00,0,weatherlink.com 1.10,2013-04-26 07:15:00,
2013-04-26 02:30:00,57.2,42.0,30.34,ESE,108,0.0,-999.0,58,-99.99,,,0.00,0,weatherlink.com 1.10,2013-04-26 07:30:00,
2013-04-26 02:45:00,55.5,42.0,30.32,ESE,108,0.0,-999.0,62,-99.99,,,0.00,0,weatherlink.com 1.10,2013-04-26 07:45:00,
2013-04-26 03:00:00,54.7,43.0,30.32,ESE,108,0.0,-999.0,64,-99.99,,,0.00,0,weatherlink.com 1.10,2013-04-26 08:00:00,
2013-04-26 03:15:00,54.1,43.0,30.31,ESE,108,0.0,-999.0,66,-99.99,,,0.00,0,weatherlink.com 1.10,2013-04-26 08:15:00,
2013-04-26 03:30:00,53.3,43.0,30.31,ESE,108,1.0,-999.0,69,-99.99,,,0.00,0,weatherlink.com 1.10,2013-04-26 08:30:00,
2013-04-26 03:45:00,53.0,43.0,30.30,ESE,108,1.0,-999.0,69,-99.99,,,0.00,0,weatherlink.com 1.10,2013-04-26 08:45:00,
2013-04-26 04:00:00,52.8,43.0,30.29,ESE,108,5.0,-999.0,70,-99.99,,,0.00,0,weatherlink.com 1.10,2013-04-26 09:00:00,
2013-04-26 04:16:00,52.2,43.0,30.28,ESE,108,1.0,-999.0,72,-99.99,,,0.00,0,weatherlink.com 1.10,2013-04-26 09:16:00,
2013-04-26 04:31:00,52.5,43.0,30.29,ESE,108,0.0,-999.0,70,-99.99,,,0.00,0,weatherlink.com 1.10,2013-04-26 09:31:00,
2013-04-26 04:46:00,52.8,43.0,30.28,ESE,109,2.0,-999.0,69,-99.99,,,0.00,0,weatherlink.com 1.10,2013-04-26 09:46:00,
2013-04-26 05:01:00,53.0,43.0,30.28,ESE,115,0.0,-999.0,69,-99.99,,,0.00,0,weatherlink.com 1.10,2013-04-26 10:01:00,
2013-04-26 05:16:00,53.4,43.0,30.28,ESE,115,0.0,-999.0,67,-99.99,,,0.00,0,weatherlink.com 1.10,2013-04-26 10:16:00,
2013-04-26 05:30:00,53.9,43.0,30.31,ESE,115,0.0,-999.0,67,-99.99,,,0.00,0,weatherlink.com 1.10,2013-04-26 10:30:00,
2013-04-26 05:45:00,53.3,44.0,30.40,WNW,286,4.0,-999.0,72,-99.99,,,0.00,0,weatherlink.com 1.10,2013-04-26 10:45:00,
2013-04-26 06:00:00,51.6,46.0,30.36,SW,217,0.0,-999.0,81,-99.99,,,0.02,0,weatherlink.com 1.10,2013-04-26 11:00:00,
2013-04-26 06:16:00,50.3,47.0,30.34,SW,217,0.0,-999.0,87,-99.99,,,0.04,0,weatherlink.com 1.10,2013-04-26 11:16:00,
2013-04-26 06:31:00,49.7,47.0,30.38,SW,217,0.0,-999.0,89,-99.99,,,0.06,0,weatherlink.com 1.10,2013-04-26 11:31:00,
2013-04-26 06:46:00,49.3,47.0,30.36,SW,217,0.0,-999.0,91,-99.99,,,0.07,0,weatherlink.com 1.10,2013-04-26 11:46:00,
2013-04-26 07:01:00,49.4,47.0,30.40,SW,219,0.0,-999.0,91,-99.99,,,0.08,0,weatherlink.com 1.10,2013-04-26 12:01:00,
2013-04-26 07:16:00,49.6,47.0,30.39,SW,214,0.0,-999.0,91,-99.99,,,0.09,0,weatherlink.com 1.10,2013-04-26 12:16:00,
2013-04-26 07:31:00,49.0,47.0,30.39,SSW,196,3.0,-999.0,91,-99.99,,,0.10,0,weatherlink.com 1.10,2013-04-26 12:31:00,
2013-04-26 07:46:00,49.0,47.0,30.39,South,188,0.0,-999.0,92,-99.99,,,0.11,0,weatherlink.com 1.10,2013-04-26 12:46:00,
2013-04-26 08:01:00,48.9,47.0,30.40,South,188,0.0,-999.0,92,-99.99,,,0.11,5,weatherlink.com 1.10,2013-04-26 13:01:00,
2013-04-26 08:16:00,48.9,47.0,30.42,South,188,0.0,-999.0,92,-99.99,,,0.12,5,weatherlink.com 1.10,2013-04-26 13:16:00,
2013-04-26 08:31:00,48.9,47.0,30.39,SSE,155,0.0,-999.0,92,-99.99,,,0.13,11,weatherlink.com 1.10,2013-04-26 13:31:00,
2013-04-26 08:46:00,48.8,47.0,30.39,SSE,153,0.0,-999.0,92,-99.99,,,0.14,14,weatherlink.com 1.10,2013-04-26 13:46:00,
2013-04-26 09:01:00,49.0,47.0,30.43,SSE,156,5.0,-999.0,92,-99.99,,,0.15,21,weatherlink.com 1.10,2013-04-26 14:01:00,
2013-04-26 09:16:00,49.3,47.0,30.40,SSE,159,0.0,-999.0,92,-99.99,,,0.16,58,weatherlink.com 1.10,2013-04-26 14:16:00,
2013-04-26 09:31:00,49.6,47.0,30.42,SE,136,6.0,-999.0,92,-99.99,,,0.17,25,weatherlink.com 1.10,2013-04-26 14:31:00,
2013-04-26 09:46:00,49.6,47.0,30.41,East,99,0.0,-999.0,92,-99.99,,,0.17,62,weatherlink.com 1.10,2013-04-26 14:46:00,
2013-04-26 10:01:00,49.8,48.0,30.40,East,99,0.0,-999.0,92,-99.99,,,0.18,21,weatherlink.com 1.10,2013-04-26 15:01:00,
2013-04-26 10:16:00,49.5,47.0,30.35,ESE,106,2.0,-999.0,92,-99.99,,,0.18,58,weatherlink.com 1.10,2013-04-26 15:16:00,
2013-04-26 10:31:00,49.4,47.0,30.38,ESE,117,0.0,-999.0,92,-99.99,,,0.18,37,weatherlink.com 1.10,2013-04-26 15:31:00,
2013-04-26 10:46:00,49.6,47.0,30.40,ESE,117,1.0,-999.0,92,-99.99,,,0.19,39,weatherlink.com 1.10,2013-04-26 15:46:00,
2013-04-26 11:01:00,49.8,48.0,30.40,ESE,117,0.0,-999.0,93,-99.99,,,0.19,14,weatherlink.com 1.10,2013-04-26 16:01:00,
2013-04-26 11:16:00,49.8,48.0,30.40,ESE,117,0.0,-999.0,93,-99.99,,,0.19,9,weatherlink.com 1.10,2013-04-26 16:16:00,
2013-04-26 11:31:00,49.7,48.0,30.44,ESE,117,0.0,-999.0,93,-99.99,,,0.19,23,weatherlink.com 1.10,2013-04-26 16:31:00,
2013-04-26 11:46:00,49.8,48.0,30.43,ESE,117,0.0,-999.0,93,-99.99,,,0.20,14,weatherlink.com 1.10,2013-04-26 16:46:00,
2013-04-26 12:01:00,49.8,48.0,30.42,ESE,105,0.0,-999.0,93,-99.99,,,0.20,16,weatherlink.com 1.10,2013-04-26 17:01:00,
2013-04-26 12:16:00,49.4,48.0,30.41,ESE,106,0.0,-999.0,93,-99.99,,,0.20,21,weatherlink.com 1.10,2013-04-26 17:16:00,
2013-04-26 12:31:00,49.3,48.0,30.41,ESE,108,0.0,-999.0,94,-99.99,,,0.20,11,weatherlink.com 1.10,2013-04-26 17:31:00,
2013-04-26 12:46:00,49.4,48.0,30.46,East,84,0.0,-999.0,94,-99.99,,,0.20,7,weatherlink.com 1.10,2013-04-26 17:46:00,
2013-04-26 13:01:00,49.6,48.0,30.45,East,84,0.0,-999.0,94,-99.99,,,0.21,11,weatherlink.com 1.10,2013-04-26 18:01:00,
2013-04-26 13:16:00,49.3,48.0,30.41,East,82,0.0,-999.0,94,-99.99,,,0.21,39,weatherlink.com 1.10,2013-04-26 18:16:00,
2013-04-26 13:31:00,49.1,48.0,30.38,ESE,113,0.0,-999.0,95,-99.99,,,0.21,107,weatherlink.com 1.10,2013-04-26 18:31:00,
2013-04-26 13:46:00,49.5,48.0,30.36,East,101,0.0,-999.0,95,-99.99,,,0.21,116,weatherlink.com 1.10,2013-04-26 18:46:00,
2013-04-26 14:01:00,49.1,48.0,30.34,ESE,103,0.0,-999.0,94,-99.99,,,0.21,23,weatherlink.com 1.10,2013-04-26 19:01:00,
2013-04-26 14:16:00,49.0,47.0,30.35,ESE,105,0.0,-999.0,94,-99.99,,,0.21,7,weatherlink.com 1.10,2013-04-26 19:16:00,
2013-04-26 14:31:00,48.6,47.0,30.36,ESE,106,0.0,-999.0,94,-99.99,,,0.21,47,weatherlink.com 1.10,2013-04-26 19:31:00,
2013-04-26 14:47:00,48.9,48.0,30.36,East,94,0.0,-999.0,95,-99.99,,,0.22,26,weatherlink.com 1.10,2013-04-26 19:47:00,
2013-04-26 15:02:00,49.0,48.0,30.32,East,96,1.0,-999.0,95,-99.99,,,0.22,88,weatherlink.com 1.10,2013-04-26 20:02:00,
2013-04-26 15:17:00,48.7,47.0,30.32,East,100,0.0,-999.0,95,-99.99,,,0.22,58,weatherlink.com 1.10,2013-04-26 20:17:00,
2013-04-26 15:32:00,48.9,48.0,30.33,ESE,105,0.0,-999.0,95,-99.99,,,0.22,100,weatherlink.com 1.10,2013-04-26 20:32:00,
2013-04-26 15:47:00,49.2,48.0,30.32,ESE,111,0.0,-999.0,95,-99.99,,,0.22,76,weatherlink.com 1.10,2013-04-26 20:47:00,
2013-04-26 16:02:00,49.5,48.0,30.28,ESE,111,5.0,-999.0,95,-99.99,,,0.22,102,weatherlink.com 1.10,2013-04-26 21:02:00,
2013-04-26 16:17:00,49.4,48.0,30.29,SE,141,8.0,-999.0,95,-99.99,,,0.22,26,weatherlink.com 1.10,2013-04-26 21:17:00,
2013-04-26 16:32:00,49.1,48.0,30.29,SE,144,4.0,-999.0,95,-99.99,,,0.22,47,weatherlink.com 1.10,2013-04-26 21:32:00,
2013-04-26 16:47:00,49.1,48.0,30.28,SSE,154,7.0,-999.0,95,-99.99,,,0.22,25,weatherlink.com 1.10,2013-04-26 21:47:00,
2013-04-26 17:02:00,48.8,47.0,30.28,SE,144,4.0,-999.0,93,-99.99,,,0.22,44,weatherlink.com 1.10,2013-04-26 22:02:00,
2013-04-26 17:17:00,49.1,47.0,30.28,SE,144,4.0,-999.0,93,-99.99,,,0.22,35,weatherlink.com 1.10,2013-04-26 22:17:00,
2013-04-26 17:32:00,49.3,47.0,30.27,ESE,119,2.0,-999.0,93,-99.99,,,0.22,18,weatherlink.com 1.10,2013-04-26 22:32:00,
2013-04-26 17:47:00,49.3,47.0,30.27,SE,127,5.0,-999.0,92,-99.99,,,0.22,12,weatherlink.com 1.10,2013-04-26 22:47:00,
2013-04-26 18:02:00,49.5,47.0,30.29,SE,136,0.0,-999.0,92,-99.99,,,0.22,19,weatherlink.com 1.10,2013-04-26 23:02:00,
2013-04-26 18:17:00,49.5,47.0,30.28,SE,136,2.0,-999.0,92,-99.99,,,0.23,16,weatherlink.com 1.10,2013-04-26 23:17:00,
2013-04-26 18:32:00,49.7,48.0,30.29,SE,136,0.0,-999.0,92,-99.99,,,0.23,16,weatherlink.com 1.10,2013-04-26 23:32:00,
2013-04-26 18:47:00,49.7,48.0,30.30,SE,136,0.0,-999.0,92,-99.99,,,0.23,16,weatherlink.com 1.10,2013-04-26 23:47:00,
2013-04-26 19:17:00,49.7,47.0,30.30,SE,132,0.0,-999.0,91,-99.99,,,0.23,0,weatherlink.com 1.10,2013-04-27 00:17:00,
2013-04-26 19:32:00,49.3,47.0,30.29,SE,135,1.0,-999.0,92,-99.99,,,0.23,0,weatherlink.com 1.10,2013-04-27 00:32:00,
2013-04-26 19:47:00,49.1,47.0,30.29,SE,135,0.0,-999.0,92,-99.99,,,0.23,0,weatherlink.com 1.10,2013-04-27 00:47:00,
2013-04-26 20:02:00,48.9,47.0,30.29,SE,135,0.0,-999.0,92,-99.99,,,0.23,0,weatherlink.com 1.10,2013-04-27 01:02:00,
2013-04-26 20:17:00,48.8,47.0,30.31,SE,135,0.0,-999.0,93,-99.99,,,0.23,0,weatherlink.com 1.10,2013-04-27 01:17:00,
2013-04-26 20:32:00,48.5,47.0,30.30,SE,135,4.0,-999.0,93,-99.99,,,0.23,0,weatherlink.com 1.10,2013-04-27 01:32:00,
2013-04-26 20:47:00,48.3,47.0,30.31,SE,135,0.0,-999.0,94,-99.99,,,0.23,0,weatherlink.com 1.10,2013-04-27 01:47:00,
2013-04-26 21:02:00,48.3,47.0,30.30,SE,135,0.0,-999.0,94,-99.99,,,0.23,0,weatherlink.com 1.10,2013-04-27 02:02:00,
2013-04-26 21:17:00,48.3,47.0,30.30,SE,135,0.0,-999.0,94,-99.99,,,0.23,0,weatherlink.com 1.10,2013-04-27 02:17:00,
2013-04-26 21:32:00,48.2,47.0,30.30,SE,125,4.0,-999.0,94,-99.99,,,0.23,0,weatherlink.com 1.10,2013-04-27 02:32:00,
2013-04-26 21:47:00,48.2,47.0,30.29,SE,124,4.0,-999.0,95,-99.99,,,0.23,0,weatherlink.com 1.10,2013-04-27 02:47:00,
2013-04-26 22:02:00,48.1,47.0,30.29,SE,134,4.0,-999.0,95,-99.99,,,0.23,0,weatherlink.com 1.10,2013-04-27 03:02:00,
2013-04-26 22:17:00,48.1,47.0,30.28,ESE,119,1.0,-999.0,95,-99.99,,,0.23,0,weatherlink.com 1.10,2013-04-27 03:17:00,
2013-04-26 22:32:00,48.1,47.0,30.28,ESE,117,0.0,-999.0,95,-99.99,,,0.23,0,weatherlink.com 1.10,2013-04-27 03:32:00,
2013-04-26 22:47:00,48.1,47.0,30.27,ESE,117,0.0,-999.0,95,-99.99,,,0.23,0,weatherlink.com 1.10,2013-04-27 03:47:00,
2013-04-26 23:02:00,48.2,47.0,30.27,ESE,117,1.0,-999.0,95,-99.99,,,0.23,0,weatherlink.com 1.10,2013-04-27 04:02:00,
2013-04-26 23:17:00,48.2,47.0,30.27,ESE,117,0.0,-999.0,95,-99.99,,,0.23,0,weatherlink.com 1.10,2013-04-27 04:17:00,
2013-04-26 23:32:00,48.2,47.0,30.27,ESE,117,0.0,-999.0,95,-99.99,,,0.23,0,weatherlink.com 1.10,2013-04-27 04:32:00,
2013-04-26 23:47:00,48.4,47.0,30.28,ESE,117,0.0,-999.0,95,-99.99,,,0.23,0,weatherlink.com 1.10,2013-04-27 04:47:00,